Regional Weather Roundup
Issued by NWS

Home | Current Version | Previous Version | Text Only | Print | Product List | Glossary Off
Versions: 1 2 3 4 5 6 7 8 9 10 11 12 13 14 15 16 17 18 19 20 21 22 23 24 25 26 27 28 29 30 31 32 33 34 35 36 37 38 39 40 41 42 43 44 45 46 47 48 49 50

000
ASUS43 KDMX 231806
RWRIA

WEATHER ROUNDUP FOR IOWA
NATIONAL WEATHER SERVICE DES MOINES IA
100 PM CDT WED MAY 23 2018

NOTE: "FAIR" INDICATES FEW OR NO CLOUDS BELOW 12,000 FEET WITH NO
SIGNIFICANT WEATHER AND/OR OBSTRUCTIONS TO VISIBILITY.

* - THESE STATIONS ARE NOT NWS STATIONS...THUS NOT UNDER NWS
QUALITY CONTROL.  THEY ALSO DO NOT REPORT WEATHER SUCH
AS PRECIPITATION OR FOG.

IAZ001>003-012>014-020>022-031>034-043>046-231900-
   NORTHWEST IOWA

CITY           SKY/WX    TMP DP  RH WIND       PRES   REMARKS
CARROLL *      MOSUNNY  N/A N/A N/A S14G20    30.08F
CHEROKEE *     MOSUNNY   82  68  62 S15G22    30.06F HX  85
DENISON *      CLOUDY    86  66  51 S15G21    30.08F HX  88
LE MARS *      CLOUDY    86  68  54 S16G23    30.03F HX  89
ORANGE CITY *  CLOUDY    82  66  57 SE15G23   30.05F HX  85
SHELDON *      SUNNY     82  70  65 MISG      30.05F HAZE    HX  86
SIOUX CITY     CLOUDY    85  69  58 S15G23    30.03F HX  89
6HR MIN TEMP:  64; 6HR MAX TEMP:  86;

SPENCER        CLOUDY    81  66  60 SE20G29   30.08F HX  83
6HR MIN TEMP:  66; 6HR MAX TEMP:  81;

STORM LAKE *   SUNNY     82  66  57 S17G25    30.08F HX  85
$$

IAZ055>058-069>071-079>083-090>094-231900-
   SOUTHWEST IOWA

CITY           SKY/WX    TMP DP  RH WIND       PRES   REMARKS
ATLANTIC *     MOSUNNY   84  66  54 S12       30.08F HX  86
AUDUBON *      SUNNY     84  70  61 S10G16    30.10F HX  88
CLARINDA *     SUNNY     88  64  45 S9        30.10F HX  89
COUNCIL BLFS * SUNNY     84  72  65 S15G21    30.06F HX  89
CRESTON *      MOSUNNY   84  64  51 SE10G16   30.13F HX  86
HARLAN  *      CLOUDY    86  66  51 S13G21    30.11S HX  88
LAMONI         MOSUNNY   83  66  56 SE8       30.12F HX  85
6HR MIN TEMP:  66; 6HR MAX TEMP:  83;

RED OAK *      MOSUNNY   86  64  48 S15       30.07F HX  87
SHENANDOAH *   MOSUNNY   90  63  40 S12G22    30.06F HX  90
$$

IAZ047>049-059>061-072>074-084-231900-
   CENTRAL IOWA

CITY           SKY/WX    TMP DP  RH WIND       PRES   REMARKS
AMES           SUNNY     81  68  64 SE9       30.12F HX  84
6HR MIN TEMP:  64; 6HR MAX TEMP:  82;

ANKENY *       SUNNY     82  68  61 SE9       30.12F HX  85
BOONE *        MOSUNNY   82  66  57 SE16G23   30.11F HX  85
CHARITON *     MOSUNNY   81  68  65 SE8       30.13F HX  83
DES MOINES     MOSUNNY   83  68  60 SE6       30.11F HX  86
6HR MIN TEMP:  68; 6HR MAX TEMP:  83;

GRINNELL*      CLOUDY    79  66  63 S10       30.16F HX  81
KNOXVILLE *    MOSUNNY   82  64  54 SE10      30.12F HX  84
MARSHALLTOWN   SUNNY     80  68  66 S14       30.13F HX  83
6HR MIN TEMP:  65; 6HR MAX TEMP:  80;

NEWTON *       CLOUDY    81  66  61 SE10      30.14F HX  83
PELLA *        CLOUDY    82  65  55 SE8       30.15F HX  84
PERRY *        FAIR      84  65  51 E14G20    30.10F HX  86
$$

IAZ004>006-015-016-023>025-035-036-231900-
   NORTH CENTRAL IOWA

CITY           SKY/WX    TMP DP  RH WIND       PRES   REMARKS
ALGONA *       SUNNY     77  68  73 S17G25    30.10F
CLARION *      SUNNY     77  68  73 S18       30.11F
ESTHERVILLE    CLOUDY    76  68  76 S18G24    30.09F
6HR MIN TEMP:  62; 6HR MAX TEMP:  76;

FORT DODGE *   SUNNY     79  69  71 SE12      30.12F HX  81
MASON CITY     MOSUNNY   79  68  69 S17       30.13S HX  81
6HR MIN TEMP:  63; 6HR MAX TEMP:  80; 6HR PCP:  0.30;

FOREST CITY *  FAIR      79  68  69 S18       30.12S HX  81
WEBSTER CITY * SUNNY     79  70  73 SE13G18   30.10F HX  81
IOWA FALLS *   FAIR      78  69  75 SE13      30.15F HX  80
$$

IAZ007>011-017>019-026>030-037>042-050>054-066-231900-
   NORTHEAST IOWA

CITY           SKY/WX    TMP DP  RH WIND       PRES   REMARKS
CEDAR RAPIDS   FAIR      79  65  62 S6        30.16F HX  81
6HR MIN TEMP:  63; 6HR MAX TEMP:  79;

CLINTON *        N/A     77  63  61 SE9       30.19F
DECORAH *      FAIR      73  66  78 S10       30.15S
DUBUQUE        FAIR      75  63  66 S7        30.18F
6HR MIN TEMP:  59; 6HR MAX TEMP:  75;

MONTICELLO *   FAIR      77  64  65 SE10      30.16F
OELWEIN *      FAIR      77  64  65 S18G25    30.13R
WATERLOO       FAIR      78  65  63 S18       30.11F HX  80
6HR MIN TEMP:  64; 6HR MAX TEMP:  78;

$$

IAZ064-065-067-068-078-231900-
   EAST CENTRAL IOWA

CITY           SKY/WX    TMP DP  RH WIND       PRES   REMARKS
DAVENPORT      FAIR      77  61  57 SE6       30.19F
6HR MIN TEMP:  61; 6HR MAX TEMP:  78;

IOWA CITY      FAIR      81  64  56 VRB3      30.17F HX  82
6HR MIN TEMP:  63; 6HR MAX TEMP:  81; 6HR PCP:  0.01;

MT. PLEASANT * CLOUDY    81  61  50 SE7       30.17S HX  81
MUSCATINE *    FAIR      81  64  57 SE8       30.16F HX  82
QUAD CITIES    FAIR      81  62  52 CALM      30.17F HX  82
6HR MIN TEMP:  61; 6HR MAX TEMP:  81;

$$

IAZ062-063-075>077-085>089-095>099-231900-
   SOUTHEAST IOWA

CITY           SKY/WX    TMP DP  RH WIND       PRES   REMARKS
BURLINGTON     MOSUNNY   81  63  54 VRB5      30.16F HX  82
6HR MIN TEMP:  66; 6HR MAX TEMP:  82;

FAIRFIELD *    SUNNY     81  64  57 E5G12     30.16S HX  82
FORT MADISON * PTSUNNY   82  64  54 CALM      30.17S HX  84
KEOKUK *       SUNNY     82  64  54 SE8       30.15F HX  84
OSKALOOSA *    FAIR      82  63  52 SE6       30.15F HX  83
OTTUMWA        MOSUNNY   83  66  56 SE8       30.14F HX  85
6HR MIN TEMP:  65; 6HR MAX TEMP:  83;

WASHINGTON *   CLOUDY    81  66  61 VRB6      30.17F HX  83
$$

ABBREVIATIONS USED IN REMARKS
   TC - TEMPERATURES IN CELSIUS
  WCI - WIND CHILL INDEX
   HX - HEAT INDEX
  VSB - VISIBILITY
$$





USA.gov is the U.S. government's official web portal to all federal, state and local government web resources and services.